Home > Weather > Hayward > Past weeks

Flag for U.S.A. Weather for the Past 2 Weeks in Hayward, California, U.S.A.

Now
59 °F

Sunny.


Feels Like: 58 °F
Forecast: 41 / 62 °F
Wind: 8 mph from West

Location: Hayward Air Terminal

Current Time: Feb 5, 2016 at 3:13:47 PM

Latest Report: Feb 5, 2016 at 1:54 PM


Visibility: 10 mi

Pressure: 30.41 "Hg

Humidity: 64%

Dew point: 47 °F

Location of HaywardLocation

Historic Weather in Hayward — Graph

°F

Hayward Temperature Yesterday

Maximum temperature yesterday: 60 °F (at 1:54 PM)
Minimum temperature yesterday: 47 °F (at 6:54 AM)
Average temperature yesterday: 53 °F

High & Low Weather Summary for the Past Weeks

 TemperatureHumidityPressure
High63 °F (Jan 21, 3:54 PM)100% (Jan 30, 2:54 AM)30.50 "Hg (Jan 30, 2:54 AM)
Low41 °F (Feb 3, 4:54 AM)32% (Feb 1, 1:54 PM)29.79 "Hg (Jan 31, 2:54 PM)
Average53 °F73%30.21 "Hg
* Reported Jan 21 1:54 PM — Feb 5 1:54 PM, Hayward, Weather by CustomWeather, © 2016

Note: Actual official high and low records may vary slightly from our data, if they occured in-between our weather recording intervals... More about our weather records

Advertising

Hayward Weather History for the Previous 24 Hours

 ConditionsComfort  
Time TempWeatherWind HumidityBarometerVisibility
1:54 PM
Fri, Feb 5
59 °FSunny.8 mph64%30.41 "Hg10 mi
12:54 PM57 °FSunny.8 mph67%30.43 "Hg10 mi
11:54 AM56 °FSunny.8 mph62%30.45 "Hg10 mi
10:54 AM55 °FSunny.No wind64%30.45 "Hg10 mi
9:54 AM52 °FCool.7 mph69%30.46 "Hg10 mi
8:54 AM49 °FSunny.No wind74%30.45 "Hg9 mi
7:54 AM44 °FSunny.No wind82%30.44 "Hg10 mi
6:54 AM42 °FClear.6 mph85%30.44 "Hg10 mi
5:54 AM43 °FClear.5 mph82%30.44 "Hg10 mi
4:54 AM43 °FClear.3 mph82%30.43 "Hg10 mi
3:54 AM44 °FClear.No wind79%30.42 "Hg10 mi
2:54 AM44 °FClear.5 mph82%30.42 "Hg10 mi
1:54 AM45 °FClear.5 mph80%30.41 "Hg10 mi
12:54 AM47 °FClear.No wind77%30.41 "Hg10 mi
11:54 PM
Thu, Feb 4
48 °FClear.No wind74%30.41 "Hg10 mi
10:54 PM48 °FClear.No wind77%30.42 "Hg10 mi
9:54 PM50 °FClear.No wind71%30.42 "Hg10 mi
8:54 PM51 °FClear.5 mph71%30.41 "Hg10 mi
7:54 PM52 °FClear.8 mph69%30.41 "Hg10 mi
6:54 PM54 °FClear.5 mph64%30.40 "Hg10 mi
5:54 PM56 °FClear.7 mph60%30.40 "Hg10 mi
4:54 PM59 °FSunny.9 mph54%30.39 "Hg10 mi
3:54 PM60 °FSunny.9 mph52%30.39 "Hg10 mi
Weather by CustomWeather, © 2016

See weather overviewHow to use our weather pages